,,Stat6,,Stat2,,Stat8,,Stat9,,Stat10,,Wind1,,Wind1,
time,status,PA1M_AVG,status,PR1M_SUM,status,RH1M_AVG,status,SR1M_AVG,status,TA1M_AVG,status,W1dAve1m,status,W1sAve1m,
2005-04-14, 00:00:00,VALID,920.319,VALID,0,VALID,99.1991,VALID,0.0679233,VALID,20.8877,VALID,14,VALID,0.500355,
2005-04-14, 00:01:00,VALID,920.343,VALID,0,VALID,99.5259,VALID,0.0509425,VALID,20.924,VALID,6,VALID,0.322545,
2005-04-14, 00:02:00,VALID,920.349,VALID,0,VALID,99.7014,VALID,0.0509425,VALID,20.9585,VALID,6,VALID,0.15189,
2005-04-14, 00:03:00,VALID,920.352,VALID,0,VALID,99.6773,VALID,0.0679233,VALID,20.9781,VALID,6,VALID,0.15625,
2005-04-14, 00:04:00,VALID,920.336,VALID,0,VALID,99.6582,VALID,0.0849042,VALID,20.9918,VALID,6,VALID,0.0178052,
2005-04-14, 00:05:00,VALID,920.324,VALID,0,VALID,99.5972,VALID,0.0849042,VALID,20.9945,VALID,6,VALID,0.0201172,
2005-04-14, 00:06:00,VALID,920.302,VALID,0,VALID,99.4687,VALID,0.0169808,VALID,20.9977,VALID,6,VALID,0.119284,
2005-04-14, 00:07:00,VALID,920.291,VALID,0,VALID,99.4662,VALID,0.0509425,VALID,20.9878,VALID,6,VALID,0,
2005-04-14, 00:08:00,VALID,920.283,VALID,0,VALID,99.4026,VALID,0.0339617,VALID,20.9778,VALID,6,VALID,0,
2005-04-14, 00:09:00,VALID,920.256,VALID,0,VALID,99.3174,VALID,0.0339617,VALID,20.9786,VALID,6,VALID,0,
2005-04-14, 00:10:00,VALID,920.25,VALID,0,VALID,98.9334,VALID,0.0339617,VALID,20.9135,VALID,6,VALID,0.161754,
2005-04-14, 00:11:00,VALID,920.235,VALID,0,VALID,98.5837,VALID,0.0339617,VALID,20.8589,VALID,6,VALID,0.232279,
2005-04-14, 00:12:00,VALID,920.211,VALID,0,VALID,98.7159,VALID,0.0679233,VALID,20.8562,VALID,6,VALID,0.058689,
2005-04-14, 00:13:00,VALID,920.196,VALID,0,VALID,98.749,VALID,0.0679233,VALID,20.8363,VALID,6,VALID,0,
2005-04-14, 00:14:00,VALID,920.167,VALID,0,VALID,98.6422,VALID,0.0339617,VALID,20.8201,VALID,6,VALID,0,
2005-04-14, 00:15:00,VALID,920.138,VALID,0,VALID,98.7108,VALID,0.0339617,VALID,20.8266,VALID,6,VALID,0.009375,
2005-04-14, 00:16:00,VALID,920.149,VALID,0,VALID,98.2645,VALID,0.0849042,VALID,20.7846,VALID,6,VALID,0.100836,
2005-04-14, 00:17:00,VALID,920.152,VALID,0,VALID,97.7343,VALID,0.0849042,VALID,20.73,VALID,6,VALID,0.157774,
2005-04-14, 00:18:00,VALID,920.163,VALID,0,VALID,97.5372,VALID,0.0339617,VALID,20.6818,VALID,6,VALID,0.342448,
2005-04-14, 00:19:00,VALID,920.184,VALID,0,VALID,97.8284,VALID,-0.0169808,VALID,20.6433,VALID,6,VALID,0.46733,
2005-04-14, 00:20:00,VALID,920.22,VALID,0,VALID,98.4184,VALID,-0.0509425,VALID,20.6349,VALID,6,VALID,0.303838,
2005-04-14, 00:21:00,VALID,920.235,VALID,0,VALID,99.1152,VALID,-0.0679233,VALID,20.6799,VALID,6,VALID,0.370821,
2005-04-14, 00:22:00,VALID,920.254,VALID,0,VALID,99.5501,VALID,-0.0849042,VALID,20.7156,VALID,6,VALID,0.142078,
2005-04-14, 00:23:00,VALID,920.264,VALID,0,VALID,99.7599,VALID,-0.0679233,VALID,20.7611,VALID,6,VALID,0.0898438,
2005-04-14, 00:24:00,VALID,920.261,VALID,0,VALID,99.8299,VALID,-0.0679233,VALID,20.787,VALID,6,VALID,0,
2005-04-14, 00:25:00,VALID,920.266,VALID,0,VALID,99.7637,VALID,-0.0509425,VALID,20.7832,VALID,6,VALID,0.0343387,
2005-04-14, 00:26:00,VALID,920.252,VALID,0,VALID,99.826,VALID,0,VALID,20.822,VALID,6,VALID,0.0939162,
2005-04-14, 00:27:00,VALID,920.237,VALID,0,VALID,99.793,VALID,-0.0509425,VALID,20.8483,VALID,6,VALID,0.00223214,
2005-04-14, 00:28:00,VALID,920.225,VALID,0,VALID,99.7497,VALID,-0.0679233,VALID,20.8639,VALID,6,VALID,0.00111607,
2005-04-14, 00:29:00,VALID,920.213,VALID,0,VALID,99.7637,VALID,-0.0509425,VALID,20.9027,VALID,6,VALID,0,
2005-04-14, 00:30:00,VALID,920.19,VALID,0,VALID,99.7332,VALID,-0.0339617,VALID,20.945,VALID,6,VALID,0,
2005-04-14, 00:31:00,VALID,920.183,VALID,0,VALID,99.7027,VALID,-0.0849042,VALID,20.9614,VALID,6,VALID,0,
2005-04-14, 00:32:00,VALID,920.189,VALID,0,VALID,99.662,VALID,-0.0679233,VALID,20.9834,VALID,6,VALID,0,
2005-04-14, 00:33:00,VALID,920.186,VALID,0,VALID,99.6836,VALID,-0.0849042,VALID,21.0061,VALID,6,VALID,0.0544764,
2005-04-14, 00:34:00,VALID,920.181,VALID,0,VALID,99.6289,VALID,-0.0849042,VALID,21.0149,VALID,6,VALID,0.118075,
2005-04-14, 00:35:00,VALID,920.176,VALID,0,VALID,99.6328,VALID,0,VALID,21.0211,VALID,6,VALID,0.175481,
2005-04-14, 00:36:00,VALID,920.18,VALID,0,VALID,99.6925,VALID,0.0679233,VALID,21.0308,VALID,6,VALID,0.304869,
2005-04-14, 00:37:00,VALID,920.182,VALID,0,VALID,99.6607,VALID,0.0679233,VALID,21.0432,VALID,6,VALID,0.248001,
2005-04-14, 00:38:00,VALID,920.198,VALID,0,VALID,99.5501,VALID,0.0509425,VALID,21.0594,VALID,6,VALID,0.346037,
2005-04-14, 00:39:00,VALID,920.2,VALID,0,VALID,99.3899,VALID,0.0339617,VALID,21.076,VALID,6,VALID,0.206676,
2005-04-14, 00:40:00,VALID,920.197,VALID,0,VALID,99.3301,VALID,0.0509425,VALID,21.0753,VALID,6,VALID,0.150521,
2005-04-14, 00:41:00,VALID,920.196,VALID,0,VALID,99.2576,VALID,0.0339617,VALID,21.0855,VALID,6,VALID,0.0704901,
2005-04-14, 00:42:00,VALID,920.191,VALID,0,VALID,99.2869,VALID,0.0509425,VALID,21.1046,VALID,6,VALID,0.0279018,
2005-04-14, 00:43:00,VALID,920.17,VALID,0,VALID,99.306,VALID,0.0509425,VALID,21.117,VALID,6,VALID,0,
2005-04-14, 00:44:00,VALID,920.143,VALID,0,VALID,99.2869,VALID,0.0849042,VALID,21.1525,VALID,6,VALID,0,
2005-04-14, 00:45:00,VALID,920.133,VALID,0,VALID,99.1241,VALID,0.0509425,VALID,21.1592,VALID,6,VALID,0,
2005-04-14, 00:46:00,VALID,920.119,VALID,0,VALID,99.016,VALID,0.0849042,VALID,21.1689,VALID,6,VALID,0,
2005-04-14, 00:47:00,VALID,920.086,VALID,0,VALID,98.8876,VALID,0.0679233,VALID,21.1719,VALID,6,VALID,0.0601381,
2005-04-14, 00:48:00,VALID,920.073,VALID,0,VALID,98.9741,VALID,0.0849042,VALID,21.1692,VALID,6,VALID,0.0747514,
2005-04-14, 00:49:00,VALID,920.045,VALID,0,VALID,98.9346,VALID,0.0679233,VALID,21.1721,VALID,6,VALID,0.121548,
2005-04-14, 00:50:00,VALID,920.035,VALID,0,VALID,98.8825,VALID,0,VALID,21.1571,VALID,6,VALID,0,
2005-04-14, 00:51:00,VALID,920.024,VALID,0,VALID,99.0084,VALID,0,VALID,21.1404,VALID,6,VALID,0,
2005-04-14, 00:52:00,VALID,920.007,VALID,0,VALID,98.9614,VALID,0,VALID,21.1315,VALID,6,VALID,0.029652,
2005-04-14, 00:53:00,VALID,919.997,VALID,0,VALID,99.1012,VALID,0,VALID,21.1304,VALID,6,VALID,0.0907012,
2005-04-14, 00:54:00,VALID,919.969,VALID,0,VALID,99.1712,VALID,0.0169808,VALID,21.1541,VALID,6,VALID,0.000545058,
2005-04-14, 00:55:00,VALID,919.963,VALID,0,VALID,99.1216,VALID,0,VALID,21.1541,VALID,6,VALID,0.000520833,
2005-04-14, 00:56:00,VALID,919.937,VALID,0,VALID,99.0338,VALID,-0.0339617,VALID,21.1611,VALID,6,VALID,0.000381098,
2005-04-14, 00:57:00,VALID,919.924,VALID,0,VALID,98.955,VALID,0,VALID,21.1379,VALID,6,VALID,0.105469,
2005-04-14, 00:58:00,VALID,919.906,VALID,0,VALID,98.969,VALID,0,VALID,21.1245,VALID,6,VALID,0,
2005-04-14, 00:59:00,VALID,919.902,VALID,0,VALID,99.0109,VALID,0,VALID,21.1124,VALID,6,VALID,0.00053267,
2005-04-14, 01:00:00,VALID,919.896,VALID,0,VALID,98.9219,VALID,-0.0169808,VALID,21.0731,VALID,6,VALID,0.25109,
2005-04-14, 01:01:00,VALID,919.884,VALID,0,VALID,98.7363,VALID,0,VALID,21.0607,VALID,6,VALID,0.258507,
2005-04-14, 01:02:00,VALID,919.875,VALID,0,VALID,98.7172,VALID,0,VALID,21.0376,VALID,6,VALID,0.127804,
2005-04-14, 01:03:00,VALID,919.859,VALID,0,VALID,98.7439,VALID,0,VALID,21.0343,VALID,6,VALID,0.000952744,
2005-04-14, 01:04:00,VALID,919.846,VALID,0,VALID,98.7426,VALID,-0.0339617,VALID,21.0405,VALID,6,VALID,0.0465116,
2005-04-14, 01:05:00,VALID,919.813,VALID,0,VALID,98.7732,VALID,0,VALID,21.044,VALID,9,VALID,0.144176,
2005-04-14, 01:06:00,VALID,919.792,VALID,0,VALID,98.8011,VALID,-0.0339617,VALID,21.0376,VALID,13,VALID,0.341206,
2005-04-14, 01:07:00,VALID,919.761,VALID,0,VALID,98.7668,VALID,-0.0169808,VALID,21.0341,VALID,13,VALID,0.340402,
2005-04-14, 01:08:00,VALID,919.746,VALID,0,VALID,98.7744,VALID,-0.0169808,VALID,21.0381,VALID,13,VALID,0.015625,
2005-04-14, 01:09:00,VALID,919.737,VALID,0,VALID,98.8049,VALID,0,VALID,21.0311,VALID,12,VALID,0.0452009,
2005-04-14, 01:10:00,VALID,919.733,VALID,0,VALID,98.6994,VALID,-0.0169808,VALID,21.0252,VALID,355,VALID,0.351215,
2005-04-14, 01:11:00,VALID,919.74,VALID,0,VALID,98.6702,VALID,-0.0169808,VALID,21.0184,VALID,354,VALID,0.0774148,
2005-04-14, 01:12:00,VALID,919.746,VALID,0,VALID,98.7236,VALID,0,VALID,21.0155,VALID,354,VALID,0.00093006,
2005-04-14, 01:13:00,VALID,919.731,VALID,0,VALID,98.7159,VALID,0,VALID,21.0053,VALID,354,VALID,0.112351,
2005-04-14, 01:14:00,VALID,919.709,VALID,0,VALID,98.7566,VALID,-0.0169808,VALID,21.0222,VALID,354,VALID,0.0378196,
2005-04-14, 01:15:00,VALID,919.704,VALID,0,VALID,98.7503,VALID,-0.0679233,VALID,21.0252,VALID,354,VALID,0.119284,
2005-04-14, 01:16:00,VALID,919.695,VALID,0,VALID,98.6422,VALID,0,VALID,21.0346,VALID,354,VALID,0.0174006,
2005-04-14, 01:17:00,VALID,919.672,VALID,0,VALID,98.4705,VALID,-0.0169808,VALID,21.041,VALID,354,VALID,0.0188643,
2005-04-14, 01:18:00,VALID,919.653,VALID,0,VALID,98.4044,VALID,-0.0169808,VALID,21.0386,VALID,354,VALID,0.305069,
2005-04-14, 01:19:00,VALID,919.654,VALID,0,VALID,98.3535,VALID,0,VALID,21.0184,VALID,359,VALID,0.422061,
2005-04-14, 01:20:00,VALID,919.629,VALID,0,VALID,98.2747,VALID,0,VALID,21.0246,VALID,6,VALID,0.422965,
2005-04-14, 01:21:00,VALID,919.628,VALID,0,VALID,98.1793,VALID,-0.0169808,VALID,21.0053,VALID,8,VALID,0.436435,
2005-04-14, 01:22:00,VALID,919.601,VALID,0,VALID,98.173,VALID,0.0169808,VALID,20.9985,VALID,12,VALID,0.368118,
2005-04-14, 01:23:00,VALID,919.569,VALID,0,VALID,98.1691,VALID,0.0169808,VALID,20.9921,VALID,12,VALID,0.098544,
2005-04-14, 01:24:00,VALID,919.545,VALID,0,VALID,98.1552,VALID,0,VALID,20.9956,VALID,12,VALID,0,
2005-04-14, 01:25:00,VALID,919.507,VALID,0,VALID,98.1602,VALID,0,VALID,21.0055,VALID,12,VALID,0,
2005-04-14, 01:26:00,VALID,919.468,VALID,0,VALID,98.0916,VALID,0,VALID,20.9985,VALID,12,VALID,0.000976563,
2005-04-14, 01:27:00,VALID,919.432,VALID,0,VALID,98.0026,VALID,0,VALID,20.9821,VALID,12,VALID,0,
2005-04-14, 01:28:00,VALID,919.405,VALID,0,VALID,98.0992,VALID,0,VALID,20.9668,VALID,12,VALID,0.101749,
2005-04-14, 01:29:00,VALID,919.373,VALID,0,VALID,98.2404,VALID,0,VALID,20.9665,VALID,12,VALID,0.193677,
2005-04-14, 01:30:00,VALID,919.372,VALID,0,VALID,98.3688,VALID,-0.0169808,VALID,20.9506,VALID,12,VALID,0.106658,
2005-04-14, 01:31:00,VALID,919.373,VALID,0,VALID,98.4629,VALID,0,VALID,20.9345,VALID,12,VALID,0.0660511,
2005-04-14, 01:32:00,VALID,919.367,VALID,0,VALID,98.5811,VALID,0,VALID,20.9283,VALID,19,VALID,0.458333,
2005-04-14, 01:33:00,VALID,919.371,VALID,0,VALID,98.5595,VALID,0.0339617,VALID,20.9046,VALID,33,VALID,0.767933,
2005-04-14, 01:34:00,VALID,919.363,VALID,0,VALID,98.4692,VALID,-0.0169808,VALID,20.8922,VALID,36,VALID,0.72237,
2005-04-14, 01:35:00,VALID,919.334,VALID,0,VALID,98.4781,VALID,0.0169808,VALID,20.8694,VALID,42,VALID,0.794207,
2005-04-14, 01:36:00,VALID,919.306,VALID,0,VALID,98.5672,VALID,0,VALID,20.8567,VALID,62,VALID,0.652071,
2005-04-14, 01:37:00,VALID,919.281,VALID,0,VALID,98.571,VALID,0.0169808,VALID,20.8338,VALID,72,VALID,0.565625,
2005-04-14, 01:38:00,VALID,919.258,VALID,0,VALID,98.6791,VALID,0,VALID,20.7983,VALID,72,VALID,0.481055,
2005-04-14, 01:39:00,VALID,919.242,VALID,0,VALID,98.8367,VALID,-0.0169808,VALID,20.7889,VALID,73,VALID,0.220567,
2005-04-14, 01:40:00,VALID,919.231,VALID,0,VALID,98.9118,VALID,-0.0169808,VALID,20.7727,VALID,73,VALID,0.331445,
2005-04-14, 01:41:00,VALID,919.225,VALID,0,VALID,98.9728,VALID,0,VALID,20.7568,VALID,73,VALID,0.404978,
2005-04-14, 01:42:00,VALID,919.233,VALID,0,VALID,99.0008,VALID,-0.0169808,VALID,20.741,VALID,81,VALID,0.682413,
2005-04-14, 01:43:00,VALID,919.225,VALID,0,VALID,99.0758,VALID,-0.0169808,VALID,20.7049,VALID,85,VALID,0.644354,
2005-04-14, 01:44:00,VALID,919.221,VALID,0,VALID,99.1635,VALID,0,VALID,20.6992,VALID,96,VALID,0.66712,
2005-04-14, 01:45:00,VALID,919.215,VALID,0,VALID,99.2729,VALID,-0.0169808,VALID,20.6796,VALID,96,VALID,0.643164,
2005-04-14, 01:46:00,VALID,919.205,VALID,0,VALID,99.3683,VALID,-0.0169808,VALID,20.6637,VALID,96,VALID,0.711124,
2005-04-14, 01:47:00,VALID,919.181,VALID,0,VALID,99.4598,VALID,0,VALID,20.6573,VALID,88,VALID,0.634171,
2005-04-14, 01:48:00,VALID,919.148,VALID,0,VALID,99.5997,VALID,-0.0339617,VALID,20.6513,VALID,78,VALID,0.709695,
2005-04-14, 01:49:00,VALID,919.119,VALID,0,VALID,99.6951,VALID,0,VALID,20.6637,VALID,84,VALID,0.859561,
2005-04-14, 01:50:00,VALID,919.093,VALID,0,VALID,99.7078,VALID,0,VALID,20.6428,VALID,88,VALID,0.7004,
2005-04-14, 01:51:00,VALID,919.069,VALID,0,VALID,99.7396,VALID,0.0169808,VALID,20.6299,VALID,100,VALID,0.744141,
2005-04-14, 01:52:00,VALID,919.053,VALID,0,VALID,99.7803,VALID,0,VALID,20.6239,VALID,103,VALID,0.427827,
2005-04-14, 01:53:00,VALID,919.029,VALID,0,VALID,99.8985,VALID,0,VALID,20.6207,VALID,107,VALID,0.548077,
2005-04-14, 01:54:00,VALID,919.016,VALID,0,VALID,99.9832,VALID,0.0169808,VALID,20.6242,VALID,110,VALID,0.807118,
2005-04-14, 01:55:00,VALID,919.014,VALID,0,VALID,100,VALID,0.0169808,VALID,20.621,VALID,102,VALID,0.448038,
2005-04-14, 01:56:00,VALID,918.981,VALID,0,VALID,100,VALID,0,VALID,20.6142,VALID,99,VALID,0.678906,
2005-04-14, 01:57:00,VALID,918.963,VALID,0,VALID,100,VALID,0.0169808,VALID,20.6043,VALID,86,VALID,0.677973,
2005-04-14, 01:58:00,VALID,918.957,VALID,0,VALID,100,VALID,0.0169808,VALID,20.5914,VALID,81,VALID,0.60119,
2005-04-14, 01:59:00,VALID,918.933,VALID,0,VALID,100,VALID,0.0169808,VALID,20.5919,VALID,86,VALID,0.453835,
2005-04-14, 02:00:00,VALID,918.924,VALID,0,VALID,100,VALID,0,VALID,20.5787,VALID,57,VALID,0.461617,
2005-04-14, 02:01:00,VALID,918.912,VALID,0,VALID,100,VALID,0,VALID,20.5693,VALID,68,VALID,0.521257,
2005-04-14, 02:02:00,VALID,918.907,VALID,0,VALID,100,VALID,0.0169808,VALID,20.5661,VALID,68,VALID,0.267535,
2005-04-14, 02:03:00,VALID,918.887,VALID,0,VALID,100,VALID,0,VALID,20.5389,VALID,68,VALID,0.0585938,
2005-04-14, 02:04:00,VALID,918.877,VALID,0,VALID,100,VALID,0,VALID,20.5599,VALID,68,VALID,0.331101,
2005-04-14, 02:05:00,VALID,918.882,VALID,0,VALID,100,VALID,-0.0509425,VALID,20.5544,VALID,68,VALID,0.331352,
2005-04-14, 02:06:00,VALID,918.882,VALID,0,VALID,100,VALID,-0.0849042,VALID,20.5612,VALID,72,VALID,0.321701,
2005-04-14, 02:07:00,VALID,918.899,VALID,0,VALID,100,VALID,-0.101885,VALID,20.545,VALID,73,VALID,0.360973,
2005-04-14, 02:08:00,VALID,918.891,VALID,0,VALID,100,VALID,-0.101885,VALID,20.5318,VALID,73,VALID,0.531432,
2005-04-14, 02:09:00,VALID,918.913,VALID,0,VALID,100,VALID,-0.0849042,VALID,20.5187,VALID,70,VALID,0.51582,
2005-04-14, 02:10:00,VALID,918.926,VALID,0,VALID,100,VALID,-0.101885,VALID,20.5256,VALID,63,VALID,0.589063,
2005-04-14, 02:11:00,VALID,918.937,VALID,0,VALID,100,VALID,-0.0679233,VALID,20.4993,VALID,63,VALID,0.596236,
2005-04-14, 02:12:00,VALID,918.943,VALID,0,VALID,100,VALID,-0.0849042,VALID,20.4769,VALID,63,VALID,0.434338,
2005-04-14, 02:13:00,VALID,918.949,VALID,0,VALID,100,VALID,-0.101885,VALID,20.4605,VALID,63,VALID,0.476367,
2005-04-14, 02:14:00,VALID,918.944,VALID,0,VALID,99.9964,VALID,-0.101885,VALID,20.4382,VALID,63,VALID,0.511265,
2005-04-14, 02:15:00,VALID,918.937,VALID,0,VALID,99.9957,VALID,-0.0849042,VALID,20.4158,VALID,63,VALID,0.357922,
2005-04-14, 02:16:00,VALID,918.929,VALID,0,VALID,100,VALID,-0.0509425,VALID,20.4059,VALID,63,VALID,0.165153,
2005-04-14, 02:17:00,VALID,918.917,VALID,0,VALID,100,VALID,-0.0849042,VALID,20.4253,VALID,63,VALID,0.00690407,
2005-04-14, 02:18:00,VALID,918.908,VALID,0,VALID,100,VALID,-0.101885,VALID,20.4253,VALID,63,VALID,0.0617378,
2005-04-14, 02:19:00,VALID,918.901,VALID,0,VALID,100,VALID,-0.101885,VALID,20.4215,VALID,63,VALID,0,
2005-04-14, 02:20:00,VALID,918.912,VALID,0,VALID,100,VALID,-0.0339617,VALID,20.4315,VALID,63,VALID,0.00429688,
2005-04-14, 02:21:00,VALID,918.917,VALID,0,VALID,100,VALID,-0.0509425,VALID,20.4183,VALID,63,VALID,0.164253,
2005-04-14, 02:22:00,VALID,918.92,VALID,0,VALID,100,VALID,-0.0509425,VALID,20.4417,VALID,63,VALID,0.00611413,
2005-04-14, 02:23:00,VALID,918.928,VALID,0,VALID,100,VALID,-0.0509425,VALID,20.4414,VALID,64,VALID,0,
2005-04-14, 02:24:00,VALID,918.929,VALID,0,VALID,100,VALID,-0.0849042,VALID,20.4479,VALID,63,VALID,0,
2005-04-14, 02:25:00,VALID,918.936,VALID,0,VALID,99.998,VALID,-0.0679233,VALID,20.4089,VALID,63,VALID,0,
2005-04-14, 02:26:00,VALID,918.94,VALID,0,VALID,99.9062,VALID,-0.0679233,VALID,20.3997,VALID,63,VALID,0.0341372,
2005-04-14, 02:27:00,VALID,918.938,VALID,0,VALID,99.7904,VALID,-0.0679233,VALID,20.3674,VALID,63,VALID,0,
2005-04-14, 02:28:00,VALID,918.958,VALID,0,VALID,99.7917,VALID,-0.0849042,VALID,20.358,VALID,63,VALID,0,
2005-04-14, 02:29:00,VALID,918.957,VALID,0,VALID,99.84,VALID,-0.0849042,VALID,20.3647,VALID,49,VALID,0.0667783,
2005-04-14, 02:30:00,VALID,918.982,VALID,0,VALID,99.9504,VALID,-0.0849042,VALID,20.3808,VALID,9,VALID,0.0200893,
2005-04-14, 02:31:00,VALID,918.968,VALID,0,VALID,99.9853,VALID,-0.0849042,VALID,20.4064,VALID,9,VALID,0.00111607,
2005-04-14, 02:32:00,VALID,918.958,VALID,0,VALID,99.9049,VALID,-0.0849042,VALID,20.4069,VALID,9,VALID,0.248828,
2005-04-14, 02:33:00,VALID,918.967,VALID,0,VALID,99.9367,VALID,-0.101885,VALID,20.4131,VALID,9,VALID,0.190952,
2005-04-14, 02:34:00,VALID,918.96,VALID,0,VALID,100,VALID,-0.0849042,VALID,20.4357,VALID,9,VALID,0.00545058,
2005-04-14, 02:35:00,VALID,918.941,VALID,0,VALID,100,VALID,-0.0679233,VALID,20.4519,VALID,9,VALID,0.0342014,
2005-04-14, 02:36:00,VALID,918.941,VALID,0,VALID,100,VALID,-0.0849042,VALID,20.4583,VALID,9,VALID,0,
2005-04-14, 02:37:00,VALID,918.937,VALID,0,VALID,100,VALID,-0.0679233,VALID,20.4581,VALID,9,VALID,0,
2005-04-14, 02:38:00,VALID,918.94,VALID,0,VALID,100,VALID,-0.0849042,VALID,20.4548,VALID,9,VALID,0.102983,
2005-04-14, 02:39:00,VALID,918.943,VALID,0,VALID,100,VALID,-0.101885,VALID,20.468,VALID,9,VALID,0.0388849,
2005-04-14, 02:40:00,VALID,918.954,VALID,0,VALID,100,VALID,-0.0679233,VALID,20.471,VALID,9,VALID,0.133814,
2005-04-14, 02:41:00,VALID,918.947,VALID,0,VALID,100,VALID,-0.0849042,VALID,20.478,VALID,9,VALID,0,
2005-04-14, 02:42:00,VALID,918.965,VALID,0,VALID,100,VALID,-0.101885,VALID,20.471,VALID,9,VALID,0.000363372,
2005-04-14, 02:43:00,VALID,918.956,VALID,0,VALID,100,VALID,-0.101885,VALID,20.4774,VALID,9,VALID,0.164244,
2005-04-14, 02:44:00,VALID,918.965,VALID,0,VALID,100,VALID,-0.0849042,VALID,20.4514,VALID,9,VALID,0.144985,
2005-04-14, 02:45:00,VALID,918.954,VALID,0,VALID,100,VALID,-0.101885,VALID,20.4422,VALID,352,VALID,0.452398,
2005-04-14, 02:46:00,VALID,918.938,VALID,0,VALID,100,VALID,-0.0679233,VALID,20.4424,VALID,315,VALID,0.497692,
2005-04-14, 02:47:00,VALID,918.918,VALID,0,VALID,100,VALID,-0.0849042,VALID,20.4486,VALID,260,VALID,0.548328,
2005-04-14, 02:48:00,VALID,918.912,VALID,0,VALID,100,VALID,-0.0679233,VALID,20.4519,VALID,250,VALID,0.605741,
2005-04-14, 02:49:00,VALID,918.903,VALID,0,VALID,100,VALID,-0.0339617,VALID,20.4645,VALID,252,VALID,0.117014,
2005-04-14, 02:50:00,VALID,918.893,VALID,0,VALID,100,VALID,0.0509425,VALID,20.4756,VALID,252,VALID,0.0461957,
2005-04-14, 02:51:00,VALID,918.875,VALID,0,VALID,100,VALID,0.0169808,VALID,20.5025,VALID,252,VALID,0,
2005-04-14, 02:52:00,VALID,918.855,VALID,0,VALID,100,VALID,0.0339617,VALID,20.5047,VALID,252,VALID,0,
2005-04-14, 02:53:00,VALID,918.834,VALID,0,VALID,100,VALID,0.0679233,VALID,20.5112,VALID,252,VALID,0.178544,
2005-04-14, 02:54:00,VALID,918.822,VALID,0,VALID,100,VALID,0,VALID,20.4915,VALID,252,VALID,0.559896,
2005-04-14, 02:55:00,VALID,918.816,VALID,0,VALID,100,VALID,0.0339617,VALID,20.4891,VALID,252,VALID,0.325391,
2005-04-14, 02:56:00,VALID,918.809,VALID,0,VALID,100,VALID,0.0339617,VALID,20.4856,VALID,252,VALID,0.28218,
2005-04-14, 02:57:00,VALID,918.82,VALID,0,VALID,100,VALID,0,VALID,20.4988,VALID,252,VALID,0.0701308,
2005-04-14, 02:58:00,VALID,918.83,VALID,0,VALID,100,VALID,0,VALID,20.5184,VALID,252,VALID,0.214658,
2005-04-14, 02:59:00,VALID,918.837,VALID,0,VALID,100,VALID,0.0169808,VALID,20.5214,VALID,252,VALID,0.307914,
2005-04-14, 03:00:00,VALID,918.86,VALID,0,VALID,100,VALID,0.0169808,VALID,20.5015,VALID,246,VALID,0.557986,
2005-04-14, 03:01:00,VALID,918.88,VALID,0,VALID,100,VALID,0.0169808,VALID,20.5015,VALID,219,VALID,0.559304,
2005-04-14, 03:02:00,VALID,918.907,VALID,0,VALID,100,VALID,0,VALID,20.5119,VALID,182,VALID,0.34561,
2005-04-14, 03:03:00,VALID,918.945,VALID,0,VALID,100,VALID,0.0339617,VALID,20.5117,VALID,182,VALID,0.262695,
2005-04-14, 03:04:00,VALID,918.969,VALID,0,VALID,100,VALID,0,VALID,20.5181,VALID,172,VALID,0.166853,
2005-04-14, 03:05:00,VALID,919.037,VALID,0,VALID,100,VALID,-0.101885,VALID,20.5,VALID,98,VALID,0.215588,
2005-04-14, 03:06:00,VALID,919.074,VALID,0,VALID,100,VALID,-0.0679233,VALID,20.503,VALID,98,VALID,0.214236,
2005-04-14, 03:07:00,VALID,919.12,VALID,0,VALID,100,VALID,-0.0679233,VALID,20.4807,VALID,98,VALID,0.485677,
2005-04-14, 03:08:00,VALID,919.149,VALID,0,VALID,100,VALID,-0.101885,VALID,20.468,VALID,78,VALID,0.454578,
2005-04-14, 03:09:00,VALID,919.176,VALID,0,VALID,100,VALID,-0.101885,VALID,20.4583,VALID,41,VALID,0.532924,
2005-04-14, 03:10:00,VALID,919.187,VALID,0,VALID,100,VALID,-0.0679233,VALID,20.4546,VALID,44,VALID,0.613459,
2005-04-14, 03:11:00,VALID,919.206,VALID,0,VALID,100,VALID,-0.101885,VALID,20.4516,VALID,52,VALID,0.594113,
2005-04-14, 03:12:00,VALID,919.174,VALID,0,VALID,100,VALID,-0.0849042,VALID,20.4317,VALID,61,VALID,0.830273,
2005-04-14, 03:13:00,VALID,919.162,VALID,0,VALID,100,VALID,-0.0849042,VALID,20.4131,VALID,61,VALID,0.858696,
2005-04-14, 03:14:00,VALID,919.129,VALID,0,VALID,100,VALID,-0.0849042,VALID,20.3935,VALID,64,VALID,0.610677,
2005-04-14, 03:15:00,VALID,919.104,VALID,0,VALID,100,VALID,-0.0849042,VALID,20.3868,VALID,68,VALID,0.439878,
2005-04-14, 03:16:00,VALID,919.083,VALID,0,VALID,100,VALID,-0.0849042,VALID,20.3808,VALID,59,VALID,0.389946,
2005-04-14, 03:17:00,VALID,919.058,VALID,0,VALID,100,VALID,-0.0509425,VALID,20.3744,VALID,52,VALID,0.461128,
2005-04-14, 03:18:00,VALID,919.034,VALID,0,VALID,100,VALID,-0.0849042,VALID,20.3709,VALID,56,VALID,0.498402,
2005-04-14, 03:19:00,VALID,919.025,VALID,0,VALID,100,VALID,-0.0339617,VALID,20.354,VALID,66,VALID,0.705611,
2005-04-14, 03:20:00,VALID,919.001,VALID,0,VALID,100,VALID,0.0339617,VALID,20.347,VALID,71,VALID,0.699929,
2005-04-14, 03:21:00,VALID,918.971,VALID,0,VALID,100,VALID,0.0169808,VALID,20.3376,VALID,72,VALID,0.391555,
2005-04-14, 03:22:00,VALID,918.948,VALID,0,VALID,100,VALID,0,VALID,20.3241,VALID,72,VALID,0.216406,
2005-04-14, 03:23:00,VALID,918.937,VALID,0,VALID,100,VALID,0,VALID,20.3206,VALID,72,VALID,0.128534,
2005-04-14, 03:24:00,VALID,918.943,VALID,0,VALID,100,VALID,0.0169808,VALID,20.3341,VALID,72,VALID,0.0795785,
2005-04-14, 03:25:00,VALID,918.949,VALID,0,VALID,100,VALID,0.0169808,VALID,20.3363,VALID,72,VALID,0.108467,
2005-04-14, 03:26:00,VALID,918.963,VALID,0,VALID,100,VALID,0.0679233,VALID,20.3534,VALID,72,VALID,0,
2005-04-14, 03:27:00,VALID,918.967,VALID,0,VALID,100,VALID,0.0339617,VALID,20.3661,VALID,72,VALID,0.151786,
2005-04-14, 03:28:00,VALID,918.961,VALID,0,VALID,100,VALID,0.0509425,VALID,20.3599,VALID,71,VALID,0.424055,
2005-04-14, 03:29:00,VALID,918.953,VALID,0,VALID,100,VALID,0,VALID,20.3629,VALID,71,VALID,0.439757,
2005-04-14, 03:30:00,VALID,918.948,VALID,0,VALID,100,VALID,0.0169808,VALID,20.3301,VALID,72,VALID,0.522017,
2005-04-14, 03:31:00,VALID,918.929,VALID,0,VALID,100,VALID,0.0509425,VALID,20.3112,VALID,82,VALID,0.627344,
2005-04-14, 03:32:00,VALID,918.924,VALID,0,VALID,100,VALID,0.0169808,VALID,20.301,VALID,106,VALID,0.944097,
2005-04-14, 03:33:00,VALID,918.907,VALID,0,VALID,100,VALID,0.0169808,VALID,20.3042,VALID,124,VALID,1.08158,
2005-04-14, 03:34:00,VALID,918.902,VALID,0,VALID,100,VALID,0.0339617,VALID,20.3018,VALID,124,VALID,0.745236,
2005-04-14, 03:35:00,VALID,918.912,VALID,0,VALID,100,VALID,-0.0339617,VALID,20.2929,VALID,122,VALID,0.672805,
2005-04-14, 03:36:00,VALID,918.899,VALID,0,VALID,100,VALID,-0.0169808,VALID,20.2896,VALID,121,VALID,0.853924,
2005-04-14, 03:37:00,VALID,918.893,VALID,0,VALID,100,VALID,0,VALID,20.2571,VALID,137,VALID,0.943314,
2005-04-14, 03:38:00,VALID,918.873,VALID,0,VALID,100,VALID,0,VALID,20.2479,VALID,124,VALID,0.818892,